When you browse on this site, cookies collect data to enhance your experience and personalize the content and advertising you see.
Visit our Privacy Policy to learn more. By continuing to use the site, you agree to this use of cookies and data.
  • In Romania
  • List of Countries
  • For 7 days
  • Water Temperature
  • Weather Map
  • Weather Widgets
  • user-avatar
    Login

    Hourly Weather Linz

    Today, 2 June, Tuesday

    Time Temperature Precipitation Wind Pressure Humidity
    00:00 +13°C° 0 mm 1 mps 735 mmHg 90%
    01:00 +13°C° 0 mm 1 mps 735 mmHg 90%
    02:00 +12°C° 0.1 mm 1 mps 735 mmHg 91%
    03:00 +12°C° 0.1 mm 1 mps 735 mmHg 92%
    04:00 +11°C° 0.1 mm 1 mps 734 mmHg 93%
    05:00 +11°C° 0 mm 0 mps 734 mmHg 89%
    06:00 +13°C° 0 mm 0 mps 734 mmHg 85%
    07:00 +16°C° 0 mm 1 mps 734 mmHg 80%
    08:00 +18°C° 0 mm 1 mps 734 mmHg 72%
    09:00 +20°C° 0 mm 1 mps 734 mmHg 65%
    10:00 +20°C° 0 mm 2 mps 734 mmHg 58%
    11:00 +20°C° 0.5 mm 2 mps 734 mmHg 59%
    12:00 +21°C° 0.5 mm 2 mps 733 mmHg 60%
    13:00 +21°C° 0 mm 2 mps 733 mmHg 55%
    14:00 +21°C° 0.6 mm 2 mps 733 mmHg 59%
    15:00 +21°C° 0.6 mm 2 mps 732 mmHg 63%
    16:00 +21°C° 0.6 mm 2 mps 732 mmHg 67%
    17:00 +19°C° 0.6 mm 2 mps 732 mmHg 71%
    18:00 +19°C° 0.6 mm 1 mps 731 mmHg 76%
    19:00 +18°C° 0.6 mm 1 mps 731 mmHg 80%
    20:00 +16°C° 0.3 mm 1 mps 731 mmHg 83%
    21:00 +15°C° 0.3 mm 1 mps 731 mmHg 86%
    22:00 +13°C° 0.3 mm 1 mps 731 mmHg 88%
    23:00 +13°C° 0.1 mm 1 mps 731 mmHg 89%

    Tomorrow, 3 June, Wednesday

    Time Temperature Precipitation Wind Pressure Humidity
    00:00 +13°C° 0.1 mm 1 mps 731 mmHg 90%
    01:00 +13°C° 0.1 mm 1 mps 730 mmHg 91%
    02:00 +12°C° 0 mm 1 mps 730 mmHg 91%
    03:00 +12°C° 0 mm 1 mps 729 mmHg 92%
    04:00 +11°C° 0 mm 1 mps 729 mmHg 92%
    05:00 +13°C° 0 mm 1 mps 729 mmHg 89%
    06:00 +14°C° 0 mm 1 mps 728 mmHg 87%
    07:00 +16°C° 0 mm 1 mps 728 mmHg 84%
    08:00 +18°C° 0.1 mm 1 mps 728 mmHg 77%
    09:00 +19°C° 0.1 mm 2 mps 728 mmHg 70%
    10:00 +21°C° 0.1 mm 2 mps 727 mmHg 64%
    11:00 +23°C° 0.4 mm 2 mps 727 mmHg 61%
    12:00 +23°C° 0.4 mm 2 mps 727 mmHg 58%
    13:00 +24°C° 0.4 mm 1 mps 726 mmHg 55%
    14:00 +24°C° 0.1 mm 1 mps 726 mmHg 55%
    15:00 +24°C° 0.1 mm 1 mps 725 mmHg 54%
    16:00 +24°C° 0.1 mm 1 mps 725 mmHg 53%
    17:00 +23°C° 0 mm 1 mps 725 mmHg 60%
    18:00 +21°C° 0 mm 1 mps 724 mmHg 68%
    19:00 +20°C° 0 mm 1 mps 724 mmHg 76%
    20:00 +18°C° 0 mm 1 mps 724 mmHg 79%
    21:00 +16°C° 0 mm 1 mps 724 mmHg 82%
    22:00 +14°C° 0 mm 1 mps 724 mmHg 86%
    23:00 +14°C° 0 mm 1 mps 723 mmHg 86%

    Day after tomorrow, 4 June, Thursday

    Time Temperature Precipitation Wind Pressure Humidity
    00:00 +13°C° 0 mm 1 mps 723 mmHg 87%
    01:00 +13°C° 0 mm 1 mps 723 mmHg 87%
    02:00 +12°C° 0 mm 1 mps 722 mmHg 88%
    03:00 +12°C° 0 mm 1 mps 722 mmHg 89%
    04:00 +11°C° 0 mm 1 mps 722 mmHg 89%
    05:00 +13°C° 0 mm 1 mps 722 mmHg 85%
    06:00 +15°C° 0 mm 2 mps 722 mmHg 82%
    07:00 +16°C° 0 mm 2 mps 722 mmHg 78%
    08:00 +17°C° 0 mm 2 mps 721 mmHg 75%
    09:00 +19°C° 0 mm 2 mps 721 mmHg 73%
    10:00 +20°C° 0 mm 2 mps 721 mmHg 71%
    11:00 +21°C° 0 mm 2 mps 721 mmHg 68%
    12:00 +23°C° 0 mm 2 mps 720 mmHg 64%
    13:00 +24°C° 0 mm 2 mps 720 mmHg 61%
    14:00 +24°C° 0.2 mm 2 mps 719 mmHg 64%
    15:00 +24°C° 0.2 mm 2 mps 719 mmHg 66%
    16:00 +24°C° 0.2 mm 2 mps 718 mmHg 69%
    17:00 +21°C° 1.8 mm 3 mps 718 mmHg 77%
    18:00 +19°C° 1.8 mm 5 mps 718 mmHg 86%
    19:00 +16°C° 1.8 mm 6 mps 717 mmHg 94%
    20:00 +15°C° 0.8 mm 5 mps 718 mmHg 94%
    21:00 +14°C° 0.8 mm 5 mps 718 mmHg 95%
    22:00 +13°C° 0.8 mm 5 mps 718 mmHg 96%
    23:00 +13°C° 0.3 mm 4 mps 718 mmHg 96%

    5 June, Friday

    Time Temperature Precipitation Wind Pressure Humidity
    00:00 +13°C° 0.3 mm 4 mps 719 mmHg 96%
    01:00 +13°C° 0.3 mm 3 mps 719 mmHg 96%
    02:00 +13°C° 0.7 mm 3 mps 719 mmHg 96%
    03:00 +12°C° 0.7 mm 3 mps 719 mmHg 96%
    04:00 +12°C° 0.7 mm 3 mps 719 mmHg 97%
    05:00 +12°C° 1.1 mm 3 mps 719 mmHg 96%
    06:00 +12°C° 1.1 mm 3 mps 719 mmHg 96%
    07:00 +12°C° 1.1 mm 3 mps 720 mmHg 96%
    08:00 +12°C° 0.4 mm 3 mps 720 mmHg 95%
    09:00 +13°C° 0.4 mm 3 mps 721 mmHg 95%
    10:00 +13°C° 0.4 mm 3 mps 721 mmHg 94%
    11:00 +13°C° 0.4 mm 3 mps 722 mmHg 91%
    12:00 +14°C° 0.4 mm 4 mps 722 mmHg 87%
    13:00 +14°C° 0.4 mm 4 mps 722 mmHg 84%
    14:00 +15°C° 0.2 mm 4 mps 723 mmHg 80%
    15:00 +17°C° 0.2 mm 4 mps 723 mmHg 75%
    16:00 +18°C° 0.2 mm 4 mps 723 mmHg 71%
    17:00 +17°C° 0.1 mm 3 mps 723 mmHg 75%
    18:00 +16°C° 0.1 mm 3 mps 723 mmHg 79%
    19:00 +15°C° 0.1 mm 2 mps 723 mmHg 83%
    20:00 +15°C° 0 mm 2 mps 724 mmHg 83%
    21:00 +14°C° 0 mm 2 mps 725 mmHg 84%
    22:00 +13°C° 0 mm 2 mps 726 mmHg 84%
    23:00 +13°C° 0 mm 1 mps 726 mmHg 84%

    6 June, Saturday

    Time Temperature Precipitation Wind Pressure Humidity
    00:00 +13°C° 0 mm 1 mps 726 mmHg 83%
    01:00 +13°C° 0 mm 1 mps 726 mmHg 83%
    02:00 +13°C° 0 mm 1 mps 726 mmHg 84%
    03:00 +12°C° 0 mm 1 mps 726 mmHg 85%
    04:00 +12°C° 0 mm 1 mps 727 mmHg 86%
    05:00 +13°C° 0 mm 1 mps 727 mmHg 84%
    06:00 +14°C° 0 mm 1 mps 727 mmHg 82%
    07:00 +15°C° 0 mm 1 mps 727 mmHg 80%
    08:00 +16°C° 0 mm 1 mps 727 mmHg 75%
    09:00 +18°C° 0 mm 2 mps 728 mmHg 70%
    10:00 +19°C° 0 mm 2 mps 728 mmHg 65%
    11:00 +20°C° 0 mm 2 mps 728 mmHg 63%
    12:00 +22°C° 0 mm 1 mps 727 mmHg 61%
    13:00 +23°C° 0 mm 1 mps 727 mmHg 59%
    14:00 +23°C° 0 mm 1 mps 727 mmHg 58%
    15:00 +23°C° 0 mm 1 mps 726 mmHg 57%
    16:00 +24°C° 0 mm 1 mps 726 mmHg 56%
    17:00 +22°C° 0.1 mm 1 mps 726 mmHg 63%
    18:00 +21°C° 0.1 mm 1 mps 726 mmHg 70%
    19:00 +20°C° 0.1 mm 1 mps 726 mmHg 77%
    20:00 +18°C° 0.5 mm 2 mps 727 mmHg 82%
    21:00 +17°C° 0.5 mm 2 mps 727 mmHg 87%
    22:00 +16°C° 0.5 mm 2 mps 727 mmHg 92%
    23:00 +15°C° 0.5 mm 2 mps 727 mmHg 93%

    7 June, Sunday

    Time Temperature Precipitation Wind Pressure Humidity
    00:00 +15°C° 0.5 mm 2 mps 727 mmHg 95%
    01:00 +15°C° 0.5 mm 2 mps 727 mmHg 97%
    02:00 +15°C° 0.4 mm 1 mps 727 mmHg 97%
    03:00 +14°C° 0.4 mm 1 mps 727 mmHg 97%
    04:00 +14°C° 0.4 mm 1 mps 727 mmHg 97%
    05:00 +13°C° 0.1 mm 0 mps 727 mmHg 97%
    06:00 +14°C° 0.1 mm 0 mps 727 mmHg 96%
    07:00 +14°C° 0.1 mm 0 mps 727 mmHg 96%
    08:00 +15°C° 0 mm 1 mps 727 mmHg 93%
    09:00 +16°C° 0 mm 1 mps 727 mmHg 90%
    10:00 +18°C° 0 mm 1 mps 727 mmHg 87%
    11:00 +19°C° 0 mm 2 mps 727 mmHg 80%
    12:00 +20°C° 0 mm 3 mps 726 mmHg 73%
    13:00 +22°C° 0 mm 3 mps 726 mmHg 66%
    14:00 +22°C° 0.1 mm 3 mps 725 mmHg 66%
    15:00 +24°C° 0.1 mm 3 mps 725 mmHg 67%
    16:00 +24°C° 0.1 mm 2 mps 725 mmHg 67%
    17:00 +20°C° 1.7 mm 5 mps 726 mmHg 76%
    18:00 +16°C° 1.7 mm 7 mps 726 mmHg 84%
    19:00 +12°C° 1.7 mm 10 mps 727 mmHg 93%
    20:00 +11°C° 1 mm 8 mps 728 mmHg 93%
    21:00 +10°C° 1 mm 6 mps 729 mmHg 94%
    22:00 +11°C° 1 mm 4 mps 730 mmHg 94%
    23:00 +10°C° 0.2 mm 3 mps 730 mmHg 95%
    Show more